Showing default

ALOS-4, 60182

Orbit data source: Space-Track

ALOS-4, 60182 is a payload satellite owned by JAXA (JP) in SSO that was launched on Mon, 01 Jul 2024 UTC via a H3-22S launch vehicle from the Tanegashima Space Center (TNSTA). Payload-class satellites include a variety of spacecraft equipped with specific instruments for various scientific and technological missions. These include communications satellites like Starlink; space stations such as the ISS; scientific satellites like the Hubble; Earth observation satellites from companies like Planet Labs, Umbra, and HawkEye 360; GPS; miniature CubeSats for education and research; and military/defense satellites.

Loading next visibility...
Identifier
60182, 2024-123A
Orbit
SSO
Last TLE update
3 hours ago
Origin
Manufacturer
MELCO
Mission
Operational Civil Imaging
Bus & Motor
ALOS, AOCS
Mass
2,900 kg wet, ~2,500 kg dry
Launch date (UTC)
2024-07-01 (10 months ago)
Launch vehicle
H3-22S
Launch site
Tanegashima Space Center (TNSTA)
Object type
Payload
Rocket body
Debris
Shape & HBR
Box + 2 Pan, 16.5 m
Radar Cross Section
36.926 m², Large (>1 m²)

Expand to show TLE details & history

TLE from 3 hours ago
0 ALOS-4
1 60182U 24123A   25129.18749348  .00002395  00000-0  32749-3 0  9999
2 60182  97.9217 227.1540 0001668 100.0747 260.0653 14.79469981 46140
Epoch: 2025-05-09T04:29Z
Definitive object data (Epoch: 2025-05-09T04:29:59.436Z)
Latitude
-0.00002°
Longitude
-67.59088°
Altitude
634.22 km
Speed
7.541 km/s
True Right ascension
15h 08m 36s
True Declination
0° 00' 00"
Sunlit
Object was in full shadow at TLE epoch
Visualization TLE readout
Latitude
-44.79417°
Longitude
104.61974°
Altitude
648.976 km
Speed
7.532 km/s
Apparent Right ascension
02h 57m 07s
Apparent Declination
-42° 23' 56"
Sunlit
Object is in daylight
Visualization observer readout
Local Sidereal Time
15:17:10
Azimuth
124.967° SE
Elevation
-85.483°
Doppler factor
1
Orbital elements
Apogee altitude
629.209 km
Perigee altitude
626.872 km
Semi-major axis
7,006.177 km
Eccentricity
0.0001668
Inclination
97.9217°
RAAN
227.154°
Arg. of periapsis
100.0747°
True anomaly
260.04647°
Mean anomaly
260.0653°
Eccentric anomaly
260.05589°
Mean motion
3.70102 °/min
BSTAR
0.00032749
Orbital period
97.27 mins
Loading maneuver chart data...
Loading SW <> Apogee altitude chart data...
Loading historical data...
Loading historical data...
Loading historical data...
Loading historical data...
Loading historical data...
Loading historical data...
Loading historical data...
Other satellites on launch #123 in the year 2024 (2024-07-01 UTC)

ALOS-4 Visibility forecast

Observer location: undefined°, undefined°

Span
Click to sort rows by Start time (UTC) header in descending order
Start Az.
Max El. time (UTC)
Max El. Az.
Max El.
End time (UTC)
End Az.
7 mins2025-05-09 19:41:13.802Z358.453° N2025-05-09 19:44:13.802Z272.202° WNW39.862°2025-05-09 19:48:13.802Z207.918° SW
7 mins2025-05-10 06:36:13.802Z172.914° S2025-05-10 06:39:13.802Z286.066° WNW44.223°2025-05-10 06:43:13.802Z344.54° N
|